022  
NZUS99 KDVN 300810  
HRRRRR  
HOURLY WEATHER ROUNDUP  
NATIONAL WEATHER SERVICE QUAD CITIES IA IL  
300 AM CDT TUE MAY 30 2017  
 
NOTE: "FAIR" INDICATES FEW OR NO CLOUDS BELOW 12,000 FEET WITH  
NO SIGNIFICANT WEATHER AND/OR OBSTRUCTIONS TO VISIBILITY.  
------------------------------------------------------------------  
 
CITY SKY/WX TMP DP RH WIND PRES REMARKS  
BURLINGTON CLEAR 56 45 66 W7 29.99R  
CEDAR RAPIDS CLEAR 50 47 89 W7 29.96F WCI 47  
DAVENPORT PTCLDY 54 46 74 W8 29.96S  
DUBUQUE CLOUDY 53 47 79 W10 29.93S  
IOWA CITY CLEAR 53 46 77 W6 29.99S  
MOLINE N/A 55 45 68 W6 29.95S  
------------------------------------------------------------------  
THE STATIONS BELOW ARE NOT NWS STATIONS AND ARE NOT SUBJECT TO NWS  
QUALITY CONTROL. SOME STATIONS DO NOT REPORT WEATHER SUCH AS FOG.  
------------------------------------------------------------------  
 
CITY SKY/WX TMP DP RH WIND PRES REMARKS  
CLINTON MOCLDY 51 47 86 W7 29.95S  
FAIRFIELD CLEAR 54 45 71 MISG 30.00S  
FORT MADISON CLEAR 55 46 71 W6 30.01R  
FREEPORT CLEAR 53 46 77 W7 29.94S  
INDEPENDENCE PTCLDY 50 45 81 W9 29.96S WCI 46  
KEOKUK CLEAR 52 46 82 CALM 30.00S  
MACOMB CLEAR 54 46 76 W7 30.01R  
MONTICELLO CLOUDY 55 46 71 W8 29.95S  
MT PLEASANT CLEAR 52 45 76 W5 30.00S  
MUSCATINE CLEAR 54 46 76 W8 29.99R  
SAVANNA CLEAR 57 47 69 W7 29.94S  
STERLING/R.F. CLEAR 52 47 83 W7 29.94S  
VINTON CLEAR 55 46 71 W7 29.97S  
WASHINGTON PTCLDY 52 48 87 W7 30.01R  
------------------------------------------------------------------  
 
 
CLICK HERE TO GO TO PREVIOUS BULLETINS.

The Nexlab IL Page
The Nexlab IA Page
The Nexlab MO Page Main Text Page